DECAYED

NOAA 16 DEB, 42353 (Decayed)

Orbit data source: Space-Track

NOAA 16 DEB, 42353 was space debris in SSO originally from a launch on Thu, 21 Sep 2000 UTC launched from the Air Force Western Test Range (AFWTR). Debris objects in space refer to the collection of defunct objects orbiting the Earth. Examples of debris include non-operational satellites, rocket bodies, and fragments generated from explosions, collisions, or faulty payload assembly.

Not visible in the next 10 days
Identifier
42353, 2000-055QV
Orbit
Decayed
Country
Flag of USUS
Related business
Manufacturer
Unknown
Mission
Decayed spacecraft
Bus & Motor
Unknown
Mass
Unknown
Launch date (UTC)
2000-09-21 (25 years ago)
Launch vehicle
Unknown
Launch site
Air Force Western Test Range (AFWTR)
Object type
Payload
Rocket body
Debris
Shape & HBR
Unknown shape, 0.1 m
Radar Cross Section
Small (<0.1 m²)

Expand to show TLE details & history
Last TLE update: 9 months ago

TLE from 9 months ago
0 NOAA 16 DEB
1 42353U 00055QV  24366.76031532  .09145984  00000-0  40438-1 0  9995
2 42353  98.7425 184.7139 0024553 345.4371  14.6181 15.78962402467128
Epoch: 2024-12-31T18:14Z
TLE epoch observation values (Epoch: 2024-12-31T18:14:51.243Z)
Latitude
-0.00006°
Longitude
170.33707°
Altitude
320.56 km
Speed
7.725 km/s
True Right ascension
12h 18m 51s
True Declination
0° 00' 00"
Sunlit
Object was in daylight at epoch
Visualization orbit readout
Latitude
Unknown
Longitude
Unknown
Altitude
Unknown
Speed
Unknown
Apparent Right ascension
Unknown
Apparent Declination
Unknown
Sunlit
N/A
Visualization observer readout
Local Sidereal Time
09:33:08
Azimuth
Unknown
Elevation
Unknown
Doppler factor
Unknown
Orbital elements
Apogee altitude
346.802 km
Perigee altitude
313.859 km
Semi-major axis
6,708.468 km
Eccentricity
0.00246
Inclination
98.7425°
RAAN
184.7139°
Arg. of periapsis
345.4371°
True anomaly
14.68932°
Mean anomaly
14.6181°
Eccentric anomaly
14.65369°
Mean motion
3.9501 °/min
Orbital period
91.14 mins
BSTAR
0.040438
Loading maneuver chart data...
Computing Atmospheric mass density...

Documentation

Showing up to 5 results
|